TimeAEST,TemperatureF,Dew PointF,Humidity,Sea Level PressureIn,VisibilityMPH,Wind Direction,Wind SpeedMPH,Gust SpeedMPH,PrecipitationIn,Events,Conditions,WindDirDegrees,DateUTC
12:00 AM,48,47,95,30.47,1,Calm,Calm,,,,,,2013-09-02 14:00:00
12:00 AM,48.2,46.4,93,30.45,1.1,Calm,Calm,-,N/A,,Unknown,0,2013-09-02 14:00:00
12:04 AM,48.2,46.4,93,30.45,0.5,Calm,Calm,-,N/A,,Unknown,0,2013-09-02 14:04:00
12:30 AM,48.2,46.4,93,30.45,0.0,Calm,Calm,-,N/A,,Scattered Clouds,0,2013-09-02 14:30:00
12:45 AM,48.2,46.4,93,30.45,0.7,Calm,Calm,-,N/A,,Scattered Clouds,0,2013-09-02 14:45:00
12:47 AM,48.2,46.4,93,30.45,0.3,Calm,Calm,-,N/A,,Scattered Clouds,0,2013-09-02 14:47:00
12:49 AM,48.2,46.4,93,30.45,0.3,Calm,Calm,-,N/A,,Mostly Cloudy,0,2013-09-02 14:49:00
1:00 AM,47,46,96,30.46,,Calm,Calm,,,,,,2013-09-02 15:00:00
1:00 AM,48.2,46.4,93,30.45,0.4,Calm,Calm,-,N/A,,Mostly Cloudy,0,2013-09-02 15:00:00
1:30 AM,46.4,46.4,100,30.45,0.1,Calm,Calm,-,N/A,,Overcast,0,2013-09-02 15:30:00
2:00 AM,46.4,46.4,100,30.45,0.0,Calm,Calm,-,N/A,,Overcast,0,2013-09-02 16:00:00
2:30 AM,46.4,46.4,100,30.45,0.0,Calm,Calm,-,N/A,,Overcast,0,2013-09-02 16:30:00
3:00 AM,46,45,96,30.45,0,Calm,Calm,,,,,,2013-09-02 17:00:00
3:00 AM,46.4,44.6,93,30.42,0.1,Calm,Calm,-,N/A,,Mostly Cloudy,0,2013-09-02 17:00:00
3:30 AM,44.6,44.6,100,30.42,1.4,Calm,Calm,-,N/A,,Overcast,0,2013-09-02 17:30:00
3:32 AM,44.6,44.6,100,30.42,1.4,Calm,Calm,-,N/A,,Overcast,0,2013-09-02 17:32:00
3:33 AM,44.6,44.6,100,30.42,1.1,Calm,Calm,-,N/A,,Overcast,0,2013-09-02 17:33:00
4:00 AM,45,45,99,30.45,,Calm,Calm,,,,,,2013-09-02 18:00:00
4:00 AM,44.6,44.6,100,30.45,0.0,Calm,Calm,-,N/A,,Overcast,0,2013-09-02 18:00:00
4:30 AM,44.6,44.6,100,30.45,0.0,Calm,Calm,-,N/A,,Overcast,0,2013-09-02 18:30:00
5:00 AM,44.6,44.6,100,30.45,0.0,Calm,Calm,-,N/A,,Overcast,0,2013-09-02 19:00:00
5:20 AM,46.4,44.6,93,30.45,0.1,Calm,Calm,-,N/A,,Scattered Clouds,0,2013-09-02 19:20:00
5:28 AM,44.6,44.6,100,30.45,0.1,Calm,Calm,-,N/A,,Mostly Cloudy,0,2013-09-02 19:28:00
5:30 AM,44.6,44.6,100,30.45,0.1,Calm,Calm,-,N/A,,Mostly Cloudy,0,2013-09-02 19:30:00
6:00 AM,44.6,44.6,100,30.45,0.2,Calm,Calm,-,N/A,Fog,Fog,0,2013-09-02 20:00:00
6:30 AM,44.6,44.6,100,30.48,0.3,Calm,Calm,-,N/A,Fog,Fog,0,2013-09-02 20:30:00
7:00 AM,46.4,44.6,93,30.48,0.1,Calm,Calm,-,N/A,Fog,Fog,0,2013-09-02 21:00:00
7:30 AM,50.0,48.2,94,30.51,6.2,Calm,Calm,-,N/A,,Partly Cloudy,0,2013-09-02 21:30:00
8:00 AM,53.6,53.6,100,30.51,5.0,WNW,4.6,-,N/A,Fog,Patches of Fog,300,2013-09-02 22:00:00
8:30 AM,59.0,53.6,82,30.51,6.2,WNW,4.6,-,N/A,,Partly Cloudy,290,2013-09-02 22:30:00
9:00 AM,62,56,73,30.54,9,WNW,3.5,,,,Haze,290,2013-09-02 23:00:00
9:00 AM,62.6,55.4,77,30.51,6.2,WNW,3.5,-,N/A,,Partly Cloudy,290,2013-09-02 23:00:00
9:30 AM,64.4,57.2,77,30.51,6.2,SSE,4.6,-,N/A,,Partly Cloudy,160,2013-09-02 23:30:00
10:00 AM,67,55,56,30.53,,East,4.6,,,,,90,2013-09-03 00:00:00
10:00 AM,68.0,55.4,64,30.51,6.2,East,4.6,-,N/A,,Partly Cloudy,90,2013-09-03 00:00:00
10:30 AM,66.2,55.4,68,30.51,6.2,ESE,6.9,-,N/A,,Partly Cloudy,110,2013-09-03 00:30:00
11:00 AM,68.0,55.4,64,30.51,6.2,East,5.8,-,N/A,,Scattered Clouds,100,2013-09-03 01:00:00
11:30 AM,69.8,57.2,64,30.51,6.2,SE,11.5,-,N/A,,Scattered Clouds,130,2013-09-03 01:30:00
12:00 PM,68.0,57.2,68,30.48,6.2,SE,9.2,-,N/A,,Scattered Clouds,140,2013-09-03 02:00:00
12:30 PM,68.0,55.4,64,30.48,6.2,ESE,12.7,-,N/A,,Scattered Clouds,110,2013-09-03 02:30:00
1:00 PM,68,55,55,30.48,,East,11.5,,,,,100,2013-09-03 03:00:00
1:00 PM,68.0,55.4,64,30.48,6.2,East,11.5,-,N/A,,Scattered Clouds,100,2013-09-03 03:00:00
1:30 PM,69.8,55.4,60,30.45,6.2,ESE,10.4,-,N/A,,Partly Cloudy,120,2013-09-03 03:30:00
2:00 PM,69.8,55.4,60,30.45,6.2,SE,13.8,-,N/A,,Partly Cloudy,130,2013-09-03 04:00:00
2:30 PM,69.8,55.4,60,30.45,6.2,SE,15.0,-,N/A,,Partly Cloudy,130,2013-09-03 04:30:00
3:00 PM,69.8,53.6,56,30.45,-9999.0,ESE,15.0,-,N/A,,Clear,120,2013-09-03 05:00:00
3:30 PM,69.8,53.6,56,30.45,-9999.0,ESE,13.8,-,N/A,,Clear,110,2013-09-03 05:30:00
4:00 PM,68.0,53.6,60,30.45,-9999.0,ESE,13.8,-,N/A,,Clear,110,2013-09-03 06:00:00
4:30 PM,68.0,53.6,60,30.45,-9999.0,East,13.8,-,N/A,,Clear,100,2013-09-03 06:30:00
5:00 PM,66.2,53.6,64,30.45,-9999.0,East,11.5,-,N/A,,Clear,100,2013-09-03 07:00:00
5:30 PM,64.4,53.6,68,30.45,6.2,East,8.1,-,N/A,,Unknown,90,2013-09-03 07:30:00
6:00 PM,63,54,63,30.48,,ENE,5.8,,,,,70,2013-09-03 08:00:00
6:00 PM,62.6,53.6,72,30.48,6.2,ENE,5.8,-,N/A,,Unknown,70,2013-09-03 08:00:00
6:30 PM,62.6,53.6,72,30.48,6.2,East,5.8,-,N/A,,Unknown,90,2013-09-03 08:30:00
7:00 PM,60,53,71,30.49,,East,5.8,,,,,90,2013-09-03 09:00:00
7:00 PM,60.8,53.6,77,30.48,6.2,East,5.8,-,N/A,,Unknown,90,2013-09-03 09:00:00
7:30 PM,57.2,53.6,88,30.48,6.2,ENE,5.8,-,N/A,,Unknown,60,2013-09-03 09:30:00
8:00 PM,59.0,53.6,82,30.51,6.2,ENE,5.8,-,N/A,,Unknown,60,2013-09-03 10:00:00
8:30 PM,57.2,53.6,88,30.51,4.3,ENE,3.5,-,N/A,,Unknown,70,2013-09-03 10:30:00
9:00 PM,54,51,86,30.52,4,Calm,Calm,,,,,,2013-09-03 11:00:00
9:00 PM,53.6,51.8,94,30.51,4.3,Calm,Calm,-,N/A,,Unknown,0,2013-09-03 11:00:00
9:03 PM,53.6,51.8,94,30.51,3.7,Calm,Calm,-,N/A,,Unknown,0,2013-09-03 11:03:00
9:30 PM,53.6,51.8,94,30.51,1.8,Calm,Calm,-,N/A,,Unknown,0,2013-09-03 11:30:00
9:59 PM,51.8,50.0,94,30.51,5.6,Calm,Calm,-,N/A,,Unknown,0,2013-09-03 11:59:00
10:00 PM,51,49,91,30.52,,Calm,Calm,,,,,,2013-09-03 12:00:00
10:00 PM,51.8,50.0,94,30.51,5.6,Calm,Calm,-,N/A,,Unknown,0,2013-09-03 12:00:00
10:30 PM,51.8,50.0,94,30.51,6.2,Calm,Calm,-,N/A,,Unknown,0,2013-09-03 12:30:00
11:00 PM,51.8,50.0,94,30.51,6.2,Calm,Calm,-,N/A,,Unknown,0,2013-09-03 13:00:00
11:30 PM,50.0,46.4,87,30.51,6.2,Calm,Calm,-,N/A,,Unknown,0,2013-09-03 13:30:00